Location: Unspecified
(0.0000°N, 0.0000°E)
Time: 07:53:34
(UTC+02:00)

Ariane H10-3 - Visible Passes

Search period start: 28 May 2016 00:00
Search period end: 07 June 2016 00:00
Orbit: 292 x 20558 km, 7.2° (Epoch: 27 May)

Date Brightness Start Highest point End Pass type
(mag) Time Alt. Az. Time Alt. Az. Time Alt. Az.
28 May 8.6 00:35:12 23° E 00:35:12 23° E 01:07:14 10° E visible
28 May 8.7 06:36:31 12° W 10:47:10 80° S 11:37:55 10° E visible
29 May 8.6 00:40:25 25° E 00:40:25 25° E 01:19:51 10° E visible
29 May 8.7 06:41:44 11° W 10:56:31 80° S 11:43:28 10° E visible
30 May 8.6 00:45:38 26° E 00:45:38 26° E 01:33:59 10° E visible
30 May 8.7 06:47:21 10° W 11:05:21 81° S 11:48:58 10° E visible
31 May 8.6 00:50:48 28° E 00:50:48 28° E 01:50:17 10° E visible
31 May 8.7 06:53:21 10° W 11:13:45 81° S 11:54:26 10° E visible
01 Jun 8.5 00:55:56 30° E 00:55:56 30° E 02:09:46 10° E visible
01 Jun 8.7 06:59:20 10° W 11:21:47 81° S 11:59:51 10° E visible
02 Jun 8.5 01:01:03 32° E 01:01:03 32° E 02:33:51 10° E visible
02 Jun 8.6 07:05:20 10° W 11:29:31 82° S 12:05:12 10° E visible
03 Jun 8.5 01:06:09 34° E 01:06:09 34° E 03:02:50 10° E visible
03 Jun 8.6 07:11:21 10° W 11:36:57 82° S 12:10:31 10° E visible
04 Jun 8.5 01:11:12 35° E 01:11:12 35° E 03:32:20 10° E visible
04 Jun 8.5 07:17:22 10° W 11:44:09 83° S 12:15:48 10° E visible
05 Jun 8.4 01:16:14 37° E 01:16:14 37° E 03:57:21 10° E visible
05 Jun 8.5 07:23:23 10° W 11:51:09 83° S 12:21:01 10° E visible
06 Jun 8.4 01:21:14 39° E 01:21:14 39° E 04:17:40 10° E visible
06 Jun 8.4 07:29:25 10° W 11:57:56 84° S 12:26:12 10° E visible
